Torna al catalogo

STARLINK-32107

AttivoComunicazioniVLEO
NORAD 59694·PAYLOAD·🇺🇸 United States

Lanciato May 8, 2024 da Cape Canaveral Space Force Station

Loading…

Prossimi Passaggi (prossime 24 ore)

TLE

AggiornatoSource: CelesTrak SupGP

Epoca: Sep 14, 2026, 14:56 UTC

1 59694C 24086N   26257.62270833 -.00027762  00000+0 -10054-2 0  2570
2 59694  43.0036  73.1594 0001532 268.1607 105.1780 15.27595531    17

Traccia STARLINK-32107 in tempo reale con AllMySat

Download on the App Store